Location: Lafig�re
(44.4503°N, 4.0357°E)
Time: 09:34:16
(UTC+00:00)

Cosmos 2150 Rocket - Pass Details

Date: 26 January 2021
Orbit: 748 x 808 km, 74.0° (Epoch: 07 March)

Event Time Altitude Azimuth Distance (km) Brightness Sun altitude
Rises 18:03:41 0° 158° (SSE) 3,181 7.1 -14.1°
Reaches altitude 10° 18:06:36 10° 141° (SE) 2,265 6.2 -14.6°
Enters shadow 18:09:22 19° 109° (ESE) 1,750 5.4 -15.1°
